• Join FlightAware (Why Join?)
  • Login
  • US Flag 
11:53AM EST


 

Airport Tracker/Info


-or-


 

Live Flight TrackerFlight Track Log ✈ N775NC ✈ 15-Oct-2013 ✈ KGSP - KATL

Flight Track Log - Related Links

Times and Time Zones

All times are in EDT time to prevent confusion due to time zone crossing. See the N775NC flight status page for this flight to view local times or setup timezone preferences in your user account.

Time Position Orientation Groundspeed Altitude Reporting Facility
EDT Latitude Longitude Course Direction KTS MPH feet Rate Location/Type
01:42PM 34.9894 -82.2336 252° West 249 287 4,500  Level Atlanta Center
01:43PM 34.9656 -82.3128 250° West 244 281 7,100 2,280 Climbing Atlanta Center
01:44PM 34.7328 -82.5125 259° West  Level Estimated
01:44PM 34.9394 -82.4019 250° West 257 296 9,100  Level Atlanta Center
01:45PM 34.6919 -82.5857 261° West  Level Estimated
01:45PM 34.9094 -82.5014 250° West 286 329 20,000  Level Atlanta Center
01:46PM 34.7043 -82.6729 280° West  Level FlightAware Approximate
01:46PM 34.8711 -82.6008 245° Southwest 317 365 13,800  Level Atlanta Center
01:47PM 34.6617 -82.7446 252° West  Level Estimated
01:47PM 34.8283 -82.7003 242° Southwest 328 377 15,900  Level Atlanta Center
01:48PM 34.7983 -82.8222 253° West 338 389 18,400 1,980 Climbing Atlanta Center
01:49PM 34.7556 -82.9289 244° Southwest 344 396 19,900 780 Climbing Atlanta Center
01:50PM 34.6981 -83.0383 237° Southwest 370 426 20,000  Climbing Atlanta Center
01:51PM 34.6508 -83.1347 239° Southwest 380 437 20,000  Level Atlanta Center
01:52PM 34.5994 -83.2489 241° Southwest 386 444 20,000  Level Atlanta Center
01:53PM 34.5250 -83.3531 229° Southwest 401 461 20,000  Level Atlanta Center
01:54PM 34.4397 -83.4519 224° Southwest 418 481 20,000 -480 Level Atlanta Center
01:55PM 34.3567 -83.5456 223° Southwest 423 487 19,100 -1,500 Descending Atlanta Center
01:56PM 34.2736 -83.6342 221° Southwest 410 472 17,100 -1,980 Descending Atlanta Center
01:57PM 34.1842 -83.7300 222° Southwest 399 459 15,200 -1,560 Descending Atlanta Center
01:58PM 34.1072 -83.8156 223° Southwest 399 459 14,000 -840 Descending Atlanta Center
01:59PM 34.0447 -83.9008 229° Southwest 362 417 13,600 -900 Descending Atlanta Center
02:00PM 33.9925 -83.9736 229° Southwest 318 366 12,300 -780 Descending Atlanta Center
02:01PM 33.9467 -84.0439 232° Southwest 289 333 12,100 -120 Descending Atlanta Center
02:02PM 33.8964 -84.1064 226° Southwest 265 305 12,100  Level Atlanta Center
02:03PM 33.8358 -84.1414 206° Southwest 256 295 12,100  Level Atlanta Center
02:04PM 33.7836 -84.1914 219° Southwest 250 288 12,100  Level Atlanta Center
02:05PM 33.7544 -84.2561 242° Southwest 240 276 12,100 -540 Level Atlanta Center
02:06PM 33.7439 -84.3386 261° West 254 292 11,100 -1,380 Descending Atlanta Center
02:08PM 33.7500 -84.4500 274° West 248 285 9,100 -1,440 Descending Atlanta TRACON
02:09PM 33.7500 -84.5333 270° West 234 269 7,700 -1,380 Descending Atlanta TRACON
02:10PM 33.7500 -84.6167 270° West 229 264 6,300 -1,320 Descending Atlanta TRACON
02:11PM 33.7500 -84.6833 270° West 229 264 5,300 -660 Descending Atlanta TRACON
02:12PM 33.7500 -84.7667 270° West 237 273 5,100 -120 Descending Atlanta TRACON
02:13PM 33.7500 -84.8333 270° West 208 239 5,100  Level Atlanta TRACON
02:14PM 33.7500 -84.9000 270° West 206 237 5,100  Level Atlanta TRACON
02:15PM 33.7000 -84.9167 195° South 194 223 5,100  Level Atlanta TRACON
02:15PM 33.6667 -84.8833 140° Southeast 189 217 5,100  Level Atlanta TRACON
02:16PM 33.6500 -84.8333 112° Southeast 195 224 5,100  Level Atlanta TRACON
02:17PM 33.6500 -84.7833 90° East 195 224 5,100  Level Atlanta TRACON
02:18PM 33.6500 -84.7167 90° East 196 226 5,100 -360 Level Atlanta TRACON
02:19PM 33.6500 -84.6500 90° East 197 227 4,400 -900 Descending Atlanta TRACON
02:20PM 33.6500 -84.5833 90° East 184 212 3,400 -1,020 Descending Atlanta TRACON
02:21PM 33.6500 -84.5167 90° East 188 216 2,400 -900 Descending Atlanta TRACON
02:22PM 33.6500 -84.4833 90° East 139 160 1,700 -780 Descending Atlanta TRACON